timestamp,surface_pressure_avg,surface_temp_avg,battery_voltage,lat,long
2021-12-06 00:09:00+00:00,339.5297,6.82,12.65,47.84626,-54.09684
2021-12-06 00:19:00+00:00,341.9613,6.85,12.65,47.84626,-54.09684
2021-12-06 00:29:00+00:00,347.87300000000016,7.05,12.65,47.84626,-54.09684
2021-12-06 00:39:00+00:00,348.6196,7.2,12.65,47.84626,-54.09684
2021-12-06 00:49:00+00:00,344.3196,7.38,12.65,47.84626,-54.09684
2021-12-06 00:59:00+00:00,348.6912,7.2,12.65,47.84626,-54.09684
2021-12-06 01:09:00+00:00,351.9562,7.2,12.65,47.84626,-54.09684
2021-12-06 01:19:00+00:00,342.5146,7.2,12.65,47.84626,-54.09684
2021-12-06 01:29:00+00:00,339.608,7.1,12.65,47.84626,-54.09684
2021-12-06 01:39:00+00:00,339.6979,6.9,12.65,47.84626,-54.09684
2021-12-06 01:49:00+00:00,337.8629,6.9,12.65,47.84626,-54.09684
2021-12-06 01:59:00+00:00,329.583,6.87,12.65,47.84626,-54.09684
2021-12-06 02:09:00+00:00,327.5413,6.9,12.65,47.84626,-54.09684
2021-12-06 02:19:00+00:00,325.653,6.9,12.65,47.84626,-54.09684
2021-12-06 02:29:00+00:00,317.6031,7.0,12.65,47.84626,-54.09684
2021-12-06 02:39:00+00:00,311.768,7.04,12.65,47.84626,-54.09684
2021-12-06 02:49:00+00:00,305.038,7.22,12.65,47.84626,-54.09684
2021-12-06 02:59:00+00:00,297.738,7.57,12.65,47.84626,-54.09684
2021-12-06 03:09:00+00:00,288.4213,7.9,12.65,47.84626,-54.09684
2021-12-06 03:19:00+00:00,280.8681,7.89,12.65,47.84626,-54.09684
2021-12-06 03:29:00+00:00,270.3214,7.34,12.65,47.84626,-54.09684
2021-12-06 03:39:00+00:00,259.4398,7.1,12.65,47.84626,-54.09684
2021-12-06 03:49:00+00:00,251.0597,7.0,12.65,47.84626,-54.09684
2021-12-06 03:59:00+00:00,243.0714,7.0,12.65,47.84626,-54.09684
2021-12-06 04:09:00+00:00,232.1798,6.8,12.65,47.84626,-54.09684
2021-12-06 04:19:00+00:00,221.3665,6.83,12.57,47.84626,-54.09684
2021-12-06 04:29:00+00:00,211.8098,6.8,12.57,47.84626,-54.09684
2021-12-06 04:39:00+00:00,201.5697,6.16,12.57,47.84626,-54.09684
2021-12-06 04:49:00+00:00,191.6014,6.07,12.57,47.84626,-54.09684
2021-12-06 04:59:00+00:00,183.9482,6.29,12.57,47.84626,-54.09684
2021-12-06 05:09:00+00:00,180.5398,6.5,12.57,47.84626,-54.09684
2021-12-06 05:19:00+00:00,172.8132,6.5,12.57,47.84626,-54.09684
2021-12-06 05:29:00+00:00,165.5699,6.49,12.57,47.84626,-54.09684
2021-12-06 05:39:00+00:00,162.9581,6.5,12.57,47.84626,-54.09684
2021-12-06 05:49:00+00:00,161.6465,6.5,12.57,47.84626,-54.09684
2021-12-06 05:59:00+00:00,159.2099,6.52,12.57,47.84626,-54.09684
2021-12-06 06:09:00+00:00,155.1782,6.7,12.57,47.84626,-54.09684
2021-12-06 06:19:00+00:00,154.8049,6.7,12.57,47.84626,-54.09684
2021-12-06 06:29:00+00:00,154.2148,6.7,12.57,47.84626,-54.09684
2021-12-06 06:39:00+00:00,153.6898,6.7,12.57,47.84626,-54.09684
2021-12-06 06:49:00+00:00,156.3198,6.6,12.57,47.84626,-54.09684
2021-12-06 06:59:00+00:00,159.2565,6.59,12.57,47.84626,-54.09684
2021-12-06 07:09:00+00:00,160.2899,6.56,12.57,47.84626,-54.09684
2021-12-06 07:19:01+00:00,160.2182,6.5,12.57,47.84626,-54.09684
2021-12-06 07:29:01+00:00,164.7881,6.4,12.57,47.84626,-54.09684
2021-12-06 07:39:01+00:00,171.0231,6.35,12.57,47.84626,-54.09684
2021-12-06 07:49:01+00:00,173.9115,7.06,12.57,47.84626,-54.09684
2021-12-06 07:59:01+00:00,178.6698,7.29,12.57,47.84626,-54.09684
2021-12-06 08:09:01+00:00,184.3164,7.3,12.57,47.84626,-54.09684
2021-12-06 08:19:00+00:00,189.9548,7.3,12.57,47.84626,-54.09684
2021-12-06 08:29:00+00:00,196.6564,7.3,12.57,47.84626,-54.09684
2021-12-06 08:39:00+00:00,197.8981,7.3,12.57,47.84626,-54.09684
2021-12-06 08:49:00+00:00,201.1532,7.3,12.57,47.84626,-54.09684
2021-12-06 08:59:00+00:00,210.6248,7.3,12.57,47.84626,-54.09684
2021-12-06 09:09:00+00:00,216.5764,7.36,12.57,47.84626,-54.09684
2021-12-06 09:19:01+00:00,221.8131,7.4,12.57,47.84626,-54.09684
2021-12-06 09:29:01+00:00,229.9297,7.49,12.57,47.84626,-54.09684
2021-12-06 09:39:01+00:00,237.3331,7.5,12.57,47.84626,-54.09684
2021-12-06 09:49:01+00:00,244.5348,7.5,12.57,47.84626,-54.09684
2021-12-06 09:59:01+00:00,253.6348,7.59,12.57,47.84626,-54.09684
2021-12-06 10:09:01+00:00,262.6814,7.6,12.57,47.84626,-54.09684
2021-12-06 10:19:00+00:00,269.2464,7.88,12.57,47.84626,-54.09684
2021-12-06 10:29:00+00:00,277.2897,8.14,12.57,47.84626,-54.09684
2021-12-06 10:39:00+00:00,286.8364,8.12,12.57,47.84626,-54.09684
2021-12-06 10:49:00+00:00,295.4047,8.36,12.57,47.84626,-54.09684
2021-12-06 10:59:00+00:00,307.238,8.5,12.57,47.84626,-54.09684
2021-12-06 11:09:00+00:00,318.233,8.5,12.57,47.84626,-54.09684
2021-12-06 11:19:00+00:00,325.163,8.5,12.57,47.84626,-54.09684
2021-12-06 11:29:00+00:00,332.4547,8.51,12.57,47.84626,-54.09684
2021-12-06 11:39:00+00:00,340.9347,8.54,12.57,47.84626,-54.09684
2021-12-06 11:49:00+00:00,349.1996,8.55,12.57,47.84626,-54.09684
2021-12-06 11:59:00+00:00,351.1829,8.55,12.57,47.84626,-54.09684
2021-12-06 12:09:00+00:00,356.3513,8.56,12.57,47.84626,-54.09684
2021-12-06 12:19:00+00:00,362.8979,8.58,14.4,47.84626,-54.09684
2021-12-06 12:29:00+00:00,369.3646,8.59,14.4,47.84626,-54.09684
2021-12-06 12:39:00+00:00,371.4279,8.58,14.4,47.84626,-54.09684
2021-12-06 12:49:00+00:00,371.9346,8.59,14.4,47.84626,-54.09684
2021-12-06 12:59:00+00:00,374.0096,8.59,14.4,47.84626,-54.09684
2021-12-06 13:09:00+00:00,378.6812,8.59,14.4,47.84626,-54.09684
2021-12-06 13:19:01+00:00,383.1095,8.59,14.32,47.84626,-54.09684
2021-12-06 13:29:01+00:00,387.418,8.56,14.32,47.84626,-54.09684
2021-12-06 13:39:01+00:00,384.4629,8.56,14.32,47.84626,-54.09684
2021-12-06 13:49:01+00:00,380.6896,8.55,14.32,47.84626,-54.09684
2021-12-06 13:59:01+00:00,383.6945,8.57,14.32,47.84626,-54.09684
2021-12-06 14:09:01+00:00,377.3363,8.58,14.32,47.84626,-54.09684
2021-12-06 14:19:00+00:00,366.7963,8.58,14.8,47.84626,-54.09684
2021-12-06 14:29:00+00:00,363.608,8.59,14.8,47.84626,-54.09684
2021-12-06 14:39:00+00:00,361.0529,8.59,14.8,47.84626,-54.09684
2021-12-06 14:49:00+00:00,352.548,8.52,14.8,47.84626,-54.09684
2021-12-06 14:59:00+00:00,351.1863,8.52,14.8,47.84626,-54.09684
2021-12-06 15:09:00+00:00,353.7614,8.52,14.8,47.84626,-54.09684
2021-12-06 15:19:01+00:00,338.0046,8.5,14.72,47.84626,-54.09684
2021-12-06 15:29:01+00:00,329.103,8.5,14.72,47.84626,-54.09684
2021-12-06 15:39:01+00:00,324.448,8.5,14.72,47.84626,-54.09684
2021-12-06 15:49:01+00:00,315.9197,8.5,14.72,47.84626,-54.09684
2021-12-06 15:59:01+00:00,297.6981,8.5,14.72,47.84626,-54.09684
2021-12-06 16:09:01+00:00,282.0698,8.5,14.72,47.84626,-54.09684
2021-12-06 16:19:01+00:00,270.1148,8.5,14.0,47.84626,-54.09684
2021-12-06 16:29:01+00:00,260.3164,8.5,14.0,47.84626,-54.09684
2021-12-06 16:39:01+00:00,250.3314,8.5,14.0,47.84626,-54.09684
2021-12-06 16:49:01+00:00,240.9981,8.5,14.0,47.84626,-54.09684
2021-12-06 16:59:01+00:00,229.6081,8.3,14.0,47.84626,-54.09684
2021-12-06 17:09:01+00:00,219.0431,8.04,14.0,47.84626,-54.09684
2021-12-06 17:19:00+00:00,212.6664,7.81,13.68,47.84626,-54.09684
2021-12-06 17:29:00+00:00,204.9231,7.8,13.68,47.84626,-54.09684
2021-12-06 17:39:00+00:00,190.7915,7.7,13.68,47.84626,-54.09684
2021-12-06 17:49:00+00:00,182.6432,7.7,13.68,47.84626,-54.09684
2021-12-06 17:59:00+00:00,179.4698,7.77,13.68,47.84626,-54.09684
2021-12-06 18:09:00+00:00,171.0081,7.8,13.68,47.84626,-54.09684
2021-12-06 18:19:00+00:00,166.7115,7.9,13.37,47.84626,-54.09684
2021-12-06 18:29:00+00:00,164.4582,7.99,13.37,47.84626,-54.09684
2021-12-06 18:39:00+00:00,159.2832,7.8,13.37,47.84626,-54.09684
2021-12-06 18:49:00+00:00,160.7282,7.9,13.37,47.84626,-54.09684
2021-12-06 18:59:00+00:00,163.0615,7.9,13.37,47.84626,-54.09684
2021-12-06 19:09:00+00:00,160.1165,7.73,13.37,47.84626,-54.09684
2021-12-06 19:19:01+00:00,163.8982,7.84,13.05,47.84626,-54.09684
2021-12-06 19:29:01+00:00,169.9115,7.9,13.05,47.84626,-54.09684
2021-12-06 19:39:01+00:00,170.4082,7.88,13.05,47.84626,-54.09684
2021-12-06 19:49:01+00:00,175.2731,8.04,13.05,47.84626,-54.09684
2021-12-06 19:59:01+00:00,179.8848,8.1,13.05,47.84626,-54.09684
2021-12-06 20:09:01+00:00,179.4681,7.8,13.05,47.84626,-54.09684
2021-12-06 20:19:01+00:00,182.1215,7.5,12.73,47.84626,-54.09684
2021-12-06 20:29:01+00:00,186.6881,7.21,12.73,47.84626,-54.09684
2021-12-06 20:39:01+00:00,183.3932,7.2,12.73,47.84626,-54.09684
2021-12-06 20:49:01+00:00,188.4648,7.13,12.73,47.84626,-54.09684
2021-12-06 20:59:01+00:00,202.6864,7.25,12.73,47.84626,-54.09684
2021-12-06 21:09:01+00:00,201.7814,7.6,12.73,47.84626,-54.09684
2021-12-06 21:19:00+00:00,198.7665,7.7,12.65,47.84626,-54.09684
2021-12-06 21:29:00+00:00,210.1147,7.78,12.65,47.84626,-54.09684
2021-12-06 21:39:00+00:00,215.3414,7.7,12.65,47.84626,-54.09684
2021-12-06 21:49:00+00:00,217.0048,7.59,12.65,47.84626,-54.09684
2021-12-06 21:59:00+00:00,224.8781,7.55,12.65,47.84626,-54.09684
2021-12-06 22:09:00+00:00,231.6698,7.5,12.65,47.84626,-54.09684
2021-12-06 22:19:01+00:00,235.1181,7.4,12.65,47.84626,-54.09684
2021-12-06 22:29:01+00:00,237.5381,7.4,12.65,47.84626,-54.09684
2021-12-06 22:39:01+00:00,240.9597,7.28,12.65,47.84626,-54.09684
2021-12-06 22:49:01+00:00,252.7364,7.47,12.65,47.84626,-54.09684
2021-12-06 22:59:01+00:00,263.8731,8.1,12.65,47.84626,-54.09684
2021-12-06 23:09:01+00:00,272.4481,8.38,12.65,47.84626,-54.09684
2021-12-06 23:19:00+00:00,277.2264,8.4,12.65,47.84626,-54.09684
2021-12-06 23:29:00+00:00,290.118,8.4,12.65,47.84626,-54.09684
2021-12-06 23:39:00+00:00,295.0681,8.4,12.65,47.84626,-54.09684
2021-12-06 23:49:00+00:00,297.5314,8.4,12.65,47.84626,-54.09684
2021-12-06 23:59:00+00:00,300.4913,8.4,12.65,47.84626,-54.09684
